, AK

(GMT )
Shemya

Weather History for PASY - November, 2013

Change the Weather History Date:

Wednesday, November 13, 2013

  Actual Average Record
Temperature  
Mean Temperature 39 °F -  
Max Temperature 43 °F 39 °F 46 °F (1982)
Min Temperature 35 °F 33 °F 23 °F (1964)
Degree Days  
Heating Degree Days 26    
Moisture  
Dew Point 37 °F    
Average Humidity 90    
Maximum Humidity 100    
Minimum Humidity 76    
Precipitation  
Precipitation 0.00 in - - ()
Sea Level Pressure  
Sea Level Pressure 30.09 in    
Wind  
Wind Speed 17 mph (ENE)    
Max Wind Speed 29 mph    
Max Gust Speed 37 mph    
Visibility 8 miles    
Events Rain    
Averages and records for this station are not official NWS values.
T = Trace of Precipitation, MM = Missing Value Source: NWS Daily Summary

Daily Weather History Graph

Daily Weather History Graph

Search for Another Location

Airport or City:

Trip Planner

Search our weather history database for the weather conditions in past years. The results will help you decide how hot, cold, wet, or windy it might be!

Date:

Astronomy

Nov. 12, 2013 Rise Set
Actual Time 9:41 AM HST 6:33 PM HST
Civil Twilight 9:03 AM HST 7:11 PM HST
Nautical Twilight 8:22 AM HST 7:52 PM HST
Astronomical Twilight 7:41 AM HST 8:32 PM HST
Moon 4:52 PM HST (11/13) 5:25 AM HST (11/13)
Length of Visible Light 10h 07m
Length of Day
8h 51m
Waxing Gibbous, 86% of the Moon is Illuminated
Nov 13
Waxing Gibbous
Nov 17
Full
Nov 25
Last Quarter
Dec 2
New
Dec 9
First Quarter

Hourly Weather History & Observations

Time (HST) Temp. Windchill Dew Point Humidity Pressure Visibility Wind Dir Wind Speed Gust Speed Precip Events Conditions
12:56 AM 43.0 °F 33.1 °F 42.1 °F 97% 30.09 in 10.0 mi West 26.5 mph 29.9 mph N/A   Overcast
1:08 AM 42.8 °F 33.8 °F 42.8 °F 100% 30.09 in 10.0 mi West 21.9 mph 33.4 mph N/A   Overcast
1:21 AM 42.8 °F 33.5 °F 41.0 °F 93% 30.09 in 10.0 mi WSW 23.0 mph - N/A   Mostly Cloudy
1:56 AM 41.0 °F 32.2 °F 39.9 °F 96% 30.12 in 10.0 mi West 18.4 mph 25.3 mph N/A   Overcast
2:56 AM 39.9 °F 31.4 °F 37.0 °F 89% 30.13 in 10.0 mi West 16.1 mph - N/A   Mostly Cloudy
3:03 AM 39.2 °F 30.8 °F 37.4 °F 93% 30.13 in 6.2 mi WSW 15.0 mph - N/A   Scattered Clouds
3:56 AM 39.9 °F 30.8 °F 36.0 °F 86% 30.18 in 10.0 mi WSW 18.4 mph - N/A   Clear
4:56 AM 39.9 °F 31.8 °F 36.0 °F 86% 30.22 in 10.0 mi West 15.0 mph - N/A   Clear
5:56 AM 39.0 °F 29.9 °F 35.1 °F 86% 30.22 in 10.0 mi West 17.3 mph - N/A   Clear
6:56 AM 39.0 °F 32.3 °F 35.1 °F 86% 30.23 in 10.0 mi West 10.4 mph - N/A   Clear
7:56 AM 39.9 °F - 36.0 °F 86% 30.23 in 9.0 mi Calm Calm - N/A   Partly Cloudy
8:12 AM 39.2 °F 37.0 °F 35.6 °F 87% 30.22 in 6.0 mi West 3.5 mph - N/A   Haze
8:33 AM 39.2 °F 34.2 °F 35.6 °F 87% 30.21 in 6.2 mi South 6.9 mph - N/A   Partly Cloudy
8:56 AM 39.9 °F 34.5 °F 36.0 °F 86% 30.20 in 9.0 mi SE 8.1 mph - N/A   Clear
9:44 AM 35.6 °F - 33.8 °F 93% 30.25 in 10.0 mi Calm Calm - N/A   Mostly Cloudy
9:56 AM 36.0 °F 33.3 °F 34.0 °F 93% 30.26 in 10.0 mi East 3.5 mph - N/A   Overcast
10:16 AM 37.4 °F 33.8 °F 35.6 °F 93% 30.27 in 10.0 mi East 4.6 mph - N/A   Mostly Cloudy
10:46 AM 39.2 °F 34.2 °F 35.6 °F 87% 30.26 in 10.0 mi ENE 6.9 mph - N/A   Overcast
10:56 AM 39.9 °F 33.9 °F 36.0 °F 86% 30.25 in 10.0 mi NE 9.2 mph - N/A   Overcast
11:56 AM 41.0 °F 34.3 °F 37.9 °F 89% 30.25 in 10.0 mi East 11.5 mph - N/A   Overcast
12:56 PM 41.0 °F 34.3 °F 37.9 °F 89% 30.24 in 10.0 mi NE 11.5 mph - N/A   Overcast
1:56 PM 39.9 °F 31.4 °F 35.1 °F 83% 30.20 in 10.0 mi NNE 16.1 mph - N/A Rain Light Rain
2:56 PM 39.0 °F 30.3 °F 36.0 °F 89% 30.17 in 9.0 mi NE 16.1 mph - N/A Rain Light Rain
3:56 PM 39.0 °F 29.0 °F 36.0 °F 89% 30.11 in 9.0 mi NE 20.7 mph - N/A Rain Light Rain
4:17 PM 39.2 °F 28.7 °F 37.4 °F 93% 30.09 in 6.2 mi NE 23.0 mph - N/A Rain Light Rain
4:46 PM 39.2 °F 28.3 °F 35.6 °F 87% 30.06 in 10.0 mi ENE 25.3 mph - N/A Rain Light Rain
4:54 PM 39.2 °F 27.8 °F 35.6 °F 87% 30.05 in 10.0 mi ENE 27.6 mph 33.4 mph N/A Rain Light Rain
4:56 PM 39.0 °F 28.0 °F 36.0 °F 89% 30.06 in 10.0 mi ENE 25.3 mph 33.4 mph N/A Rain Light Rain
5:04 PM 39.2 °F 28.3 °F 35.6 °F 87% 30.05 in 10.0 mi ENE 25.3 mph 34.5 mph N/A Rain Light Rain
5:16 PM 37.4 °F 25.6 °F 35.6 °F 93% 30.05 in 10.0 mi ENE 26.5 mph 32.2 mph N/A Rain Light Rain
5:23 PM 39.2 °F 27.6 °F 37.4 °F 93% 30.04 in 10.0 mi ENE 28.8 mph 32.2 mph N/A Rain Light Rain
5:48 PM 37.4 °F 25.9 °F 35.6 °F 93% 30.04 in 6.0 mi ENE 25.3 mph 36.8 mph N/A Rain Rain
5:56 PM 37.9 °F 26.6 °F 36.0 °F 93% 30.05 in 6.0 mi ENE 25.3 mph 32.2 mph N/A Rain Rain
6:00 PM 37.4 °F 26.4 °F 37.4 °F 100% 30.05 in 6.0 mi ENE 23.0 mph - N/A Rain Rain
6:51 PM 39.2 °F 28.3 °F 39.2 °F 100% 30.02 in 10.0 mi ENE 25.3 mph 29.9 mph N/A Rain Light Rain
6:56 PM 39.9 °F 29.2 °F 39.0 °F 97% 30.02 in 10.0 mi ENE 25.3 mph 29.9 mph N/A Rain Light Rain
7:56 PM - - - N/A% 30.00 in 10.0 mi NE 23.0 mph - N/A Rain Light Rain
8:56 PM - - - N/A% 29.96 in 10.0 mi NE 23.0 mph - N/A Rain Light Rain
9:23 PM - - - N/A% 29.95 in 10.0 mi ENE 19.6 mph - N/A Rain Light Rain
9:56 PM - - - N/A% 29.94 in 10.0 mi ENE 13.8 mph - N/A Rain Light Rain
10:01 PM - - - N/A% 29.94 in 10.0 mi ENE 15.0 mph - N/A Rain Light Rain
10:05 PM - - - N/A% 29.93 in 10.0 mi ENE 13.8 mph - N/A Rain Light Rain
10:22 PM - - - N/A% 29.93 in 6.2 mi East 12.7 mph - N/A Rain Light Rain
10:34 PM - - - N/A% 29.93 in 6.2 mi East 10.4 mph - N/A Rain Light Rain
10:46 PM - - - N/A% 29.93 in 4.0 mi ESE 11.5 mph - N/A Rain Light Rain
10:53 PM - - - N/A% 29.92 in 1.8 mi SE 11.5 mph - N/A Rain Light Rain
10:56 PM - - - N/A% 29.92 in 1.5 mi SE 11.5 mph - N/A Rain Light Rain
11:04 PM - - - N/A% 29.92 in 1.2 mi South 12.7 mph - N/A Rain Light Rain
11:35 PM - - - N/A% 29.92 in 1.5 mi South 15.0 mph - N/A Rain Light Rain
11:45 PM - - - N/A% 29.92 in 1.8 mi South 13.8 mph - N/A Rain Light Rain
11:56 PM - - - N/A% 29.92 in 1.8 mi South 13.8 mph - N/A Rain Light Rain